CAPE
nan nan nan nan nan nan nan nan nan nan nan 0 0 0 0 3 1 1 9 4 4 3 4 8 8 14 33 81 105 105 120 125 129 129 129 127 130 130 134 137 137 142 152 151 151 156 161 158 158 160 166 165 172 172 178 184 184 195 207 218 218 241 263 281 281 288 314 335 356 356 367 370 357 357 343 349 358 358 349 352 352 394 411 376 376 334
nan nan nan nan nan nan nan 0 0 0 nan 0 0 0 0 0 0 0 5 9 9 7 7 15 15 21 22 51 90 90 97 105 111 111 114 117 119 119 125 129 129 130 137 136 136 137 137 141 141 154 163 165 173 173 181 192 192 190 201 217 217 235 256 273 273 291 306 329 341 341 343 339 333 333 319 332 334 334 343 346 346 391 414 387 387 353
nan nan nan nan nan nan nan nan 1 1 2 0 1 1 1 1 2 2 5 12 12 14 12 17 17 17 15 33 76 76 88 96 98 98 105 106 110 110 112 114 114 115 118 117 117 121 131 143 143 154 162 176 186 186 199 203 203 210 225 234 234 252 270 277 277 287 298 320 317 317 318 318 325 325 323 319 315 315 344 359 359 388 392 360 360 337
1 nan nan 0 0 0 0 0 2 2 4 2 2 2 4 6 9 9 19 20 20 14 12 10 10 7 8 17 50 50 73 80 88 88 87 92 94 94 92 97 97 97 102 107 107 116 125 142 142 157 171 180 195 195 204 215 215 225 232 245 245 257 268 274 274 287 287 296 303 303 304 284 298 298 304 307 318 318 344 333 333 346 334 326 326 328
3 1 0 1 1 1 2 1 1 1 3 5 7 7 16 16 21 21 30 17 17 9 4 4 4 2 3 7 30 30 59 64 70 70 71 74 78 78 82 83 83 91 94 103 103 115 127 138 138 151 161 169 182 182 186 193 193 202 206 219 219 234 241 259 259 277 279 283 275 275 255 239 238 238 256 273 282 282 291 288 288 283 276 282 282 293
4 3 2 2 2 1 2 3 3 3 6 6 14 14 25 24 22 22 17 10 10 3 1 2 2 2 1 1 17 17 41 48 54 54 58 67 73 73 80 86 86 91 99 104 104 116 121 127 127 137 143 152 160 160 165 171 171 177 185 199 199 219 239 247 247 243 246 239 230 230 213 202 202 202 202 210 217 217 226 236 236 240 232 240 240 258
5 5 5 2 2 2 2 1 3 3 6 12 16 16 19 15 8 8 5 2 2 1 3 3 3 1 0 1 12 12 29 34 44 44 54 65 74 74 79 88 88 95 100 104 104 108 114 111 111 119 128 136 146 146 155 157 157 169 184 191 191 206 209 205 205 201 203 190 182 182 173 174 172 172 171 172 179 179 184 193 193 198 202 216 216 226
4 2 5 4 4 2 2 5 25 25 25 17 5 5 1 0 2 2 7 11 11 5 0 nan nan nan nan nan nan nan nan 2 2 2 14 30 56 56 70 86 86 91 92 97 97 99 100 106 106 110 116 124 133 133 137 134 134 129 125 125 125 121 132 138 138 143 139 141 147 147 146 144 142 142 144 144 145 145 157 171 171 191 213 227 227 239
5 4 2 0 0 0 3 13 25 25 13 7 1 1 nan 1 1 1 1 1 1 1 nan nan nan nan nan nan nan nan 7 15 7 7 16 13 18 18 48 70 70 79 85 91 91 92 95 101 101 107 110 114 116 116 118 111 111 102 101 101 101 103 113 121 121 137 148 151 156 156 150 144 134 134 134 130 133 133 137 153 153 176 202 234 234 251
9 5 0 0 0 4 8 14 9 9 11 6 4 4 3 3 1 1 0 nan nan nan nan 0 0 0 0 1 2 2 7 20 58 58 78 55 77 77 55 42 42 41 68 79 79 84 87 93 93 98 94 99 102 102 99 93 93 89 88 89 89 94 101 117 117 135 150 151 151 151 147 146 143 143 138 132 125 125 128 142 142 155 184 216 216 246
2 1 0 4 4 15 13 6 1 1 5 7 6 6 4 2 1 1 0 nan nan nan nan 0 0 1 1 2 3 3 5 6 12 12 36 45 48 48 45 44 44 50 63 69 69 74 75 76 76 78 81 85 83 83 77 73 73 72 77 85 85 91 100 112 112 128 139 150 151 151 152 152 150 150 144 138 137 137 134 135 135 141 163 194 194 219
nan 1 10 16 16 5 2 1 2 2 5 3 1 1 0 0 2 2 0 nan nan 0 0 1 1 3 0 1 6 6 7 7 6 6 7 8 13 13 15 13 13 23 34 42 42 48 59 65 65 65 62 61 68 68 66 58 58 67 71 78 78 87 99 110 110 122 132 138 144 144 154 157 162 162 152 156 151 151 147 143 143 142 158 177 177 196
5 7 18 7 7 2 0 1 2 2 1 0 0 0 0 nan 1 1 2 1 1 1 0 nan nan 2 1 2 6 6 9 8 6 6 6 5 6 6 4 4 4 5 5 8 8 7 30 49 49 52 54 51 55 55 57 58 58 67 72 81 81 92 102 113 113 124 129 139 148 148 156 169 177 177 177 180 178 178 177 166 166 167 175 186 186 204
14 10 4 1 1 1 2 2 1 1 0 0 0 0 0 0 2 2 4 2 2 2 5 8 8 5 6 12 15 15 8 4 5 5 7 5 5 5 2 5 5 5 4 2 2 2 17 23 23 15 37 39 43 43 46 58 58 70 80 91 91 101 109 112 112 121 130 140 153 153 163 180 189 189 197 208 206 206 204 208 208 199 200 206 206 211
14 3 1 4 4 5 2 1 1 1 0 nan 0 0 1 3 4 4 0 0 0 2 12 22 22 12 10 1 5 5 2 4 4 4 4 5 8 8 4 3 3 2 2 3 3 3 15 12 12 5 8 18 25 25 41 56 56 87 88 96 96 100 104 106 106 118 132 142 152 152 168 181 191 191 200 210 215 215 219 224 224 221 230 233 233 233
3 2 2 4 4 3 1 1 0 0 0 0 1 1 3 5 8 8 7 4 4 5 7 10 10 12 8 4 4 4 2 4 1 1 nan 2 4 4 3 1 1 1 3 4 4 3 5 4 4 6 8 27 52 52 64 73 73 87 87 89 89 95 100 104 104 114 126 142 157 157 168 178 193 193 197 207 218 218 222 230 230 233 236 241 241 249
5 2 0 5 5 2 1 0 0 0 1 2 2 2 nan 2 6 6 6 8 8 9 6 6 6 4 4 2 5 5 4 1 2 2 1 0 2 2 4 2 2 4 2 3 3 3 4 5 5 8 13 41 62 62 65 73 73 80 85 89 89 91 95 101 101 115 129 145 156 156 167 176 185 185 195 203 208 208 212 220 220 231 228 236 236 250
5 2 3 2 2 1 0 1 1 1 4 1 0 0 4 8 3 3 0 1 1 6 8 13 13 4 1 nan 2 2 5 1 4 4 2 3 3 3 3 1 1 1 2 3 3 4 4 8 8 6 21 59 64 64 67 70 70 77 79 82 82 88 92 106 106 118 136 148 163 163 168 175 179 179 184 187 193 193 203 208 208 218 228 225 225 226
4 4 2 2 2 1 1 2 4 4 3 2 8 8 8 9 6 6 13 9 9 7 4 9 9 7 4 1 2 2 4 1 2 2 1 5 4 4 2 2 2 7 3 3 3 3 6 13 13 34 48 58 62 62 63 69 69 74 80 82 82 87 95 104 104 118 133 143 152 152 156 159 163 163 173 176 182 182 192 197 197 202 210 207 207 210
4 4 3 2 2 2 3 5 9 9 10 12 6 6 7 13 11 11 12 8 8 7 7 7 7 10 10 8 3 3 4 4 3 3 2 4 3 3 2 4 4 5 2 2 2 4 7 11 11 20 41 52 56 56 61 64 64 72 79 86 86 91 94 105 105 115 124 132 141 141 149 152 153 153 157 167 174 174 179 186 186 196 199 197 197 200
4 2 1 1 1 2 4 8 13 13 20 19 5 5 10 12 11 11 7 14 14 15 14 9 9 13 7 6 5 5 6 3 3 3 3 4 4 4 2 3 3 3 1 2 2 5 8 10 10 17 26 43 52 52 55 63 63 69 75 83 83 86 91 98 98 106 114 124 127 127 131 137 141 141 148 148 155 155 166 177 177 188 193 197 197 201
3 1 0 2 2 7 9 6 22 22 25 18 16 16 16 8 12 12 15 14 14 17 15 12 12 11 7 8 6 6 9 5 4 4 1 4 3 3 1 0 0 2 3 3 3 6 9 4 4 2 19 44 49 49 55 61 61 69 76 78 78 80 83 91 91 98 105 111 114 114 119 123 128 128 131 136 148 148 153 168 168 180 190 195 195 200
1 1 3 8 8 13 16 7 15 15 26 18 20 20 12 8 15 15 14 14 14 16 14 14 14 13 10 10 5 5 6 5 1 1 nan 1 0 0 1 2 2 4 5 4 4 4 3 2 2 2 17 46 48 48 54 59 59 67 70 73 73 78 80 81 81 87 93 101 106 106 113 121 129 129 134 139 147 147 155 167 167 178 189 195 195 200
2 4 10 13 13 12 13 17 26 26 24 15 14 14 19 17 14 14 13 15 15 14 11 12 12 11 9 5 2 2 3 3 0 0 0 3 4 4 2 2 2 1 2 3 3 1 2 1 1 2 7 37 45 45 51 54 54 60 64 67 67 67 70 75 75 81 85 95 104 104 114 120 133 133 137 146 146 146 160 165 165 175 187 185 185 194
4 14 20 28 28 35 33 22 23 23 15 15 14 14 20 29 28 28 17 15 15 10 9 5 5 8 5 5 1 1 1 3 2 2 2 5 4 4 1 2 2 1 3 3 3 1 1 1 1 1 2 17 35 35 42 47 47 48 53 57 57 58 61 66 66 73 79 86 97 97 106 116 122 122 129 129 134 134 134 137 137 149 150 154 154 159
42 53 65 72 72 90 76 61 57 57 46 23 16 16 17 24 22 22 16 13 13 8 5 4 4 5 3 1 1 1 1 4 2 2 nan 1 4 4 1 3 3 1 5 5 5 3 0 1 1 1 1 6 27 27 34 35 35 39 42 48 48 50 55 56 56 63 67 73 81 81 85 91 97 97 102 108 113 113 109 120 120 124 125 122 122 127
99 108 99 76 76 57 49 55 68 68 83 63 28 28 20 19 18 18 16 9 9 5 4 2 2 5 3 3 2 2 2 3 2 2 0 1 5 5 3 3 3 1 4 3 3 3 4 2 2 2 2 2 9 9 25 27 27 31 36 37 37 41 47 48 48 53 56 57 63 63 68 75 84 84 86 96 98 98 105 110 110 111 114 111 111 108
79 50 33 26 26 27 37 44 54 54 58 61 78 78 49 18 12 12 11 7 7 5 2 5 5 8 5 4 1 1 2 3 2 2 2 3 2 2 3 3 3 3 3 1 1 5 13 6 6 3 2 0 2 2 11 19 19 22 24 27 27 29 32 37 37 42 46 48 54 54 59 65 73 73 80 86 96 96 102 110 110 116 122 113 113 88
23 13 14 16 16 23 32 38 40 40 46 53 68 68 45 12 8 8 8 7 7 5 3 8 8 7 4 3 3 3 1 1 0 0 1 4 3 3 1 3 3 5 1 4 4 2 3 1 1 1 1 2 1 1 3 11 11 10 16 19 19 22 26 30 30 36 38 44 49 49 57 65 71 71 75 84 92 92 98 107 107 115 106 106 106 92
2 5 7 12 12 18 22 16 26 26 38 47 51 51 34 9 6 6 5 7 7 4 5 7 7 6 4 5 3 3 0 nan nan nan 0 2 3 3 2 5 5 7 3 4 4 2 nan 0 0 0 0 4 0 0 nan 1 1 1 3 12 12 13 19 22 22 26 33 38 44 44 51 59 66 66 71 79 84 84 90 95 95 80 62 61 61 66
nan nan nan 2 2 6 6 5 15 15 30 37 34 34 21 8 6 6 9 12 12 3 6 4 4 6 5 1 3 3 0 nan nan nan nan 2 3 3 4 5 5 10 4 0 0 0 0 nan nan 0 0 1 0 0 nan nan nan nan nan nan nan 2 10 13 13 19 28 33 38 38 46 48 56 56 60 67 72 72 77 85 85 71 42 34 34 32
0 1 2 3 3 3 2 3 1 1 1 2 3 3 10 12 9 9 5 3 3 4 3 2 2 3 3 2 1 1 0 nan 1 1 4 nan 5 5 7 1 1 5 5 1 1 nan nan 1 1 0 0 nan nan nan nan nan nan nan nan nan nan nan 0 4 4 6 9 18 25 25 28 29 35 35 40 47 51 51 55 58 58 55 31 17 17 26
4 4 4 4 4 4 3 2 2 2 1 1 2 2 5 7 12 12 8 6 6 2 0 0 0 2 4 5 4 4 1 nan 3 3 10 0 2 2 5 2 2 3 6 5 5 2 nan 0 0 0 nan nan 0 0 nan nan nan nan nan nan nan nan nan 1 1 0 3 8 12 12 19 20 26 26 29 35 39 39 43 49 49 51 46 10 10 18
5 8 6 4 4 3 3 2 2 2 1 1 4 4 5 5 5 5 6 3 3 2 1 nan nan 1 1 1 2 2 1 nan 4 4 8 0 1 1 2 3 3 2 4 3 3 3 1 1 1 2 nan nan 0 0 nan nan nan nan nan nan nan nan nan nan nan 0 2 3 1 1 4 3 16 16 17 22 27 27 33 39 39 46 52 27 27 16
6 6 5 3 3 4 3 2 3 3 2 2 2 2 4 3 2 2 2 1 1 1 nan nan nan nan 0 nan 0 0 0 nan 2 2 10 0 2 2 1 2 2 1 1 3 3 2 3 3 3 4 1 nan nan nan nan nan nan nan nan nan nan nan nan nan nan 0 1 0 0 0 nan nan 3 3 6 13 21 21 28 35 35 40 46 56 56 39
4 6 6 4 4 4 3 3 2 2 2 1 1 1 2 2 1 1 nan 0 0 1 2 1 1 nan nan nan nan nan nan nan 3 3 9 0 0 0 0 nan nan 1 1 2 2 3 1 3 3 5 4 0 nan nan nan nan nan nan nan nan nan nan nan nan nan nan nan nan nan nan nan nan 2 2 4 18 24 24 29 30 30 37 41 49 49 50
6 6 4 3 3 3 2 1 0 0 nan 1 0 0 1 2 0 0 0 0 0 0 0 3 3 1 5 nan nan nan nan nan 0 0 4 0 nan nan nan 1 1 4 0 0 0 0 1 2 2 3 1 0 nan nan nan nan nan nan nan nan nan nan nan nan nan nan nan nan nan nan nan 0 2 2 6 16 19 19 23 28 28 27 32 37 37 44
6 6 4 2 2 2 1 0 0 0 0 nan 0 0 1 0 1 1 nan 0 0 2 0 nan nan nan 6 13 5 5 1 nan nan nan nan 1 nan nan 0 2 2 5 1 0 0 0 0 0 0 2 1 nan 1 1 0 nan nan nan nan nan nan nan nan nan nan nan nan nan 2 2 3 1 nan nan 0 3 3 3 2 2 2 10 18 23 23 31
5 3 4 3 3 2 0 0 0 0 nan 0 0 0 0 0 2 2 2 0 0 1 1 nan nan nan nan 1 8 8 7 1 nan nan nan nan 0 0 0 0 0 1 0 0 0 nan 0 0 0 0 0 0 0 0 nan nan nan nan nan nan nan nan nan nan nan nan nan nan 1 1 1 nan nan nan nan nan 0 0 0 0 0 3 3 3 3 15
4 3 3 4 4 2 0 1 0 0 0 1 2 2 0 0 0 0 0 1 1 1 1 0 0 0 1 3 3 3 2 nan nan nan nan nan nan nan nan nan nan 1 0 0 0 nan 0 2 2 1 2 nan 0 0 0 nan nan nan 0 nan nan nan nan nan nan nan nan nan nan nan nan nan nan nan nan nan 0 0 0 nan nan 0 2 1 1 0
6 3 2 2 2 2 0 nan nan nan 1 1 0 0 nan nan nan nan nan 0 0 0 0 1 1 1 1 1 nan nan nan nan nan nan nan nan nan nan nan nan nan 0 nan 0 0 0 1 1 1 4 1 nan 1 1 1 nan nan 1 2 nan nan nan nan nan nan nan nan nan nan nan 2 1 1 1 nan nan nan nan nan 0 0 0 1 1 1 nan
7 3 1 0 0 nan nan 0 2 2 1 0 nan nan nan nan nan nan 0 0 0 0 0 0 0 1 0 nan nan nan nan nan nan nan nan nan nan nan nan 0 0 0 nan 0 0 0 2 1 1 1 nan nan nan nan 0 nan nan 0 1 nan nan nan nan nan nan nan nan nan nan nan 3 0 nan nan nan nan nan nan nan nan nan 2 4 0 0 nan
3 1 0 nan nan nan 1 3 2 2 1 nan nan nan nan nan nan nan 0 0 0 1 0 nan nan 0 1 0 nan nan nan nan nan nan nan nan nan nan nan 0 0 1 0 0 0 1 2 3 3 nan 0 nan nan nan 0 0 0 nan nan 0 0 0 nan nan nan nan nan nan nan nan nan nan nan nan nan nan nan nan nan 2 2 8 8 2 2 0
2 0 1 0 0 0 1 1 0 0 nan nan nan nan nan nan 1 1 1 nan nan 1 nan nan nan 1 1 1 0 0 nan nan nan nan nan nan nan nan nan 1 1 2 1 0 0 nan 1 2 2 0 0 nan nan nan nan nan nan nan nan nan nan nan nan nan nan nan nan nan nan nan nan nan nan nan 0 0 nan nan 0 nan nan nan 3 4 4 1
nan 1 1 0 0 1 1 0 nan nan nan nan nan nan nan nan 2 2 0 nan nan 1 nan nan nan 0 0 0 0 0 nan nan nan nan nan nan 3 3 2 2 2 1 1 nan nan nan 0 0 0 0 0 nan nan nan 0 nan nan nan nan nan nan nan nan nan nan nan nan nan nan nan nan nan nan nan 0 0 nan nan nan 0 0 nan nan 1 1 1
1 2 2 1 1 0 1 0 nan nan nan nan nan nan nan nan nan nan 1 0 0 0 1 nan nan nan 0 nan nan nan 0 nan nan nan nan nan nan nan nan 1 1 1 0 nan nan nan nan nan nan 1 1 0 0 0 0 nan nan nan nan nan nan nan nan nan nan nan nan nan nan nan nan nan nan nan 0 0 0 0 0 3 3 1 nan nan nan 1
3 3 1 0 0 0 0 0 nan nan nan 0 nan nan nan 0 nan nan 0 1 1 0 1 0 0 nan nan 0 nan nan 0 0 0 0 nan nan nan nan nan nan nan 4 0 nan nan nan 0 0 0 2 0 0 nan nan nan nan nan nan nan nan nan nan nan nan nan nan nan nan nan nan nan 0 1 1 1 1 0 0 nan 1 1 3 0 0 0 2
3 2 0 0 0 0 nan nan nan nan nan nan nan nan nan 0 1 1 0 0 0 0 2 0 0 0 nan 0 nan nan 0 0 nan nan nan nan nan nan nan nan nan 0 3 3 3 4 2 0 0 1 2 0 nan nan nan nan nan nan nan nan nan nan nan nan nan nan nan nan nan nan nan 0 1 1 1 1 0 0 nan nan nan 1 1 nan nan 1
3 1 1 1 1 1 0 nan nan nan nan 0 nan nan nan 2 10 10 0 nan nan 0 nan nan nan 0 0 0 0 0 1 0 nan nan nan nan nan nan nan nan nan 0 0 3 3 3 nan nan nan nan nan nan nan nan nan nan nan nan nan nan nan nan nan nan nan nan nan nan nan nan nan nan nan nan nan 0 0 0 nan nan nan 1 2 1 1 3
0 1 1 0 0 nan 0 nan nan nan 1 1 nan nan nan nan nan nan nan nan nan nan nan nan nan nan 0 0 0 0 0 nan nan nan nan nan nan nan nan 0 0 1 2 1 1 1 nan nan nan nan nan nan nan nan nan nan nan nan nan nan nan nan nan nan nan nan nan nan nan nan nan nan nan nan nan 0 1 1 0 nan nan nan 1 2 2 4
1 1 0 nan nan 0 0 nan nan nan 0 0 0 0 nan nan nan nan nan nan nan nan nan nan nan nan nan nan 0 0 0 nan nan nan nan nan nan nan nan nan nan 1 1 1 1 0 nan nan nan nan nan nan nan nan 0 2 2 0 nan nan nan nan nan nan nan nan 0 nan nan nan nan nan 0 0 nan 0 0 0 nan nan nan nan 0 0 0 1
CIN
nan nan nan nan nan nan nan nan nan nan nan -0 -0 -0 -0 -0 -0 -0 -0 -0 -0 -0 -0 -0 -0 -0 -0 -0 -0 -0 -0 -0 -0 -0 -0 -0 -0 -0 -0 -0 -0 -0 -0 -0 -0 -0 -0 -0 -0 -0 -0 -0 -0 -0 -0 -0 -0 -0 -0 -0 -0 -0 -0 -0 -0 -0 -0 -0 -0 -0 -0 -0 -0 -0 -0 -0 -0 -0 -0 -0 -0 -0 -0 -0 -0 -0
nan nan nan nan nan nan nan -0 -0 -0 nan -0 -0 -0 -0 -0 -0 -0 -0 -0 -0 -0 -0 -0 -0 -0 -0 -0 -0 -0 -0 -0 -0 -0 -0 -0 -0 -0 -0 -0 -0 -0 -0 -0 -0 -0 -0 -0 -0 -0 -0 -0 -0 -0 -0 -0 -0 -0 -0 -0 -0 -0 -0 -0 -0 -0 -0 -0 -0 -0 -0 -0 -0 -0 -0 -0 -0 -0 -0 -0 -0 -0 -0 -0 -0 -0
nan nan nan nan nan nan nan nan -0 -0 -0 -0 -0 -0 -0 -0 -0 -0 -0 -0 -0 -0 -0 -0 -0 -0 -0 -0 -0 -0 -0 -0 -0 -0 -0 -0 -0 -0 -0 -0 -0 -0 -0 -0 -0 -0 -0 -0 -0 -0 -0 -0 -0 -0 -0 -0 -0 -0 -0 -0 -0 -0 -0 -0 -0 -0 -0 -0 -0 -0 -0 -0 -0 -0 -0 -0 -0 -0 -0 -0 -0 -0 -0 -0 -0 -0
-0 nan nan -0 -0 -0 -0 -0 -0 -0 -0 -0 -0 -0 -0 -0 -0 -0 -0 -0 -0 -0 -0 -0 -0 -0 -0 -0 -0 -0 -0 -0 -0 -0 -0 -0 -0 -0 -0 -0 -0 -0 -0 -0 -0 -0 -0 -0 -0 -0 -0 -0 -0 -0 -0 -0 -0 -0 -0 -0 -0 -0 -0 -0 -0 -0 -0 -0 -0 -0 -0 -0 -0 -0 -0 -0 -0 -0 -0 -0 -0 -0 -0 -0 -0 -0
-0 -0 -0 -0 -0 -0 -0 -0 -0 -0 -0 -0 -0 -0 -0 -0 -0 -0 -0 -0 -0 -0 -0 -0 -0 -0 -0 -0 -0 -0 -0 -0 -0 -0 -0 -0 -0 -0 -0 -0 -0 -0 -0 -0 -0 -0 -0 -0 -0 -0 -0 -0 -0 -0 -0 -0 -0 -0 -0 -0 -0 -0 -0 -0 -0 -0 -0 -0 -0 -0 -0 -0 -0 -0 -0 -0 -0 -0 -0 -0 -0 -0 -0 -0 -0 -0
-0 -0 -0 -0 -0 -0 -0 -0 -0 -0 -0 -0 -0 -0 -0 -0 -0 -0 -0 -0 -0 -0 -0 -0 -0 -0 -0 -0 -0 -0 -0 -0 -0 -0 -0 -0 -0 -0 -0 -0 -0 -0 -0 -0 -0 -0 -0 -0 -0 -0 -0 -0 -0 -0 -0 -0 -0 -0 -0 -0 -0 -0 -0 -0 -0 -0 -0 -0 -0 -0 -0 -0 -0 -0 -0 -0 -0 -0 -0 -0 -0 -0 -0 -0 -0 -0
-0 -0 -0 -0 -0 -0 -0 -0 -0 -0 -0 -0 -0 -0 -0 -0 -0 -0 -0 -0 -0 -0 -0 -0 -0 -0 -0 -0 -0 -0 -0 -0 -0 -0 -0 -0 -0 -0 -0 -0 -0 -0 -0 -0 -0 -0 -0 -0 -0 -0 -0 -0 -0 -0 -0 -0 -0 -0 -0 -0 -0 -0 -0 -0 -0 -0 -0 -0 -0 -0 -0 -0 -0 -0 -0 -0 -0 -0 -0 -0 -0 -0 -0 -0 -0 -0
-0 -0 -0 -0 -0 -0 -0 -0 -0 -0 -0 -0 -0 -0 -0 -0 -0 -0 -1 -0 -0 -0 -0 nan nan nan nan nan nan nan nan -0 -0 -0 -0 -0 -0 -0 -0 -0 -0 -0 -0 -0 -0 -0 -0 -0 -0 -0 -0 -0 -0 -0 -0 -0 -0 -0 -0 -0 -0 -0 -0 -0 -0 -0 -0 -0 -0 -0 -0 -0 -0 -0 -0 -0 -0 -0 -0 -0 -0 -0 -0 -0 -0 -0
-0 -0 -0 -0 -0 -0 -0 -0 -0 -0 -0 -0 -0 -0 nan -0 -0 -0 -0 -0 -0 -0 nan nan nan nan nan nan nan nan -0 -0 -0 -0 -0 -0 -0 -0 -0 -0 -0 -0 -0 -0 -0 -0 -0 -0 -0 -0 -0 -0 -0 -0 -0 -0 -0 -0 -0 -0 -0 -0 -0 -0 -0 -0 -0 -0 -0 -0 -0 -0 -0 -0 -0 -0 -0 -0 -0 -0 -0 -0 -0 -0 -0 -0
-0 -0 -0 -0 -0 -0 -0 -0 -0 -0 -0 -0 -0 -0 -0 -0 -0 -0 -0 nan nan nan nan -0 -0 -0 -0 -0 -0 -0 -0 -0 -0 -0 -0 -0 -0 -0 -0 -0 -0 -0 -0 -0 -0 -0 -0 -0 -0 -0 -0 -0 -0 -0 -0 -0 -0 -0 -0 -0 -0 -0 -0 -0 -0 -0 -0 -0 -0 -0 -0 -0 -0 -0 -0 -0 -0 -0 -0 -0 -0 -0 -0 -0 -0 -0
-0 -0 -0 -0 -0 -0 -0 -0 -0 -0 -0 -0 -0 -0 -0 -0 -0 -0 -0 nan nan nan nan -0 -0 -0 -0 -0 -0 -0 -0 -0 -0 -0 -0 -0 -0 -0 -0 -0 -0 -0 -0 -0 -0 -0 -0 -0 -0 -0 -0 -0 -0 -0 -0 -0 -0 -0 -0 -0 -0 -0 -0 -0 -0 -0 -0 -0 -0 -0 -0 -0 -0 -0 -0 -0 -0 -0 -0 -0 -0 -0 -0 -0 -0 -0
nan -0 -0 -0 -0 -0 -0 -0 -0 -0 -0 -0 -0 -0 -0 -0 -0 -0 -0 nan nan -0 -0 -0 -0 -0 -1 -0 -0 -0 -0 -0 -0 -0 -0 -0 -0 -0 -0 -0 -0 -0 -0 -0 -0 -0 -0 -0 -0 -0 -0 -0 -0 -0 -0 -0 -0 -0 -0 -0 -0 -0 -0 -0 -0 -0 -0 -0 -0 -0 -0 -0 -0 -0 -0 -0 -0 -0 -0 -0 -0 -0 -0 -0 -0 -0
-0 -0 -0 -0 -0 -0 -0 -0 -0 -0 -0 -0 -0 -0 -0 nan -0 -0 -0 -0 -0 -0 -0 nan nan -0 -1 -1 -0 -0 -0 -0 -0 -0 -0 -0 -0 -0 -0 -0 -0 -0 -0 -0 -0 -0 -0 -0 -0 -0 -0 -0 -0 -0 -0 -0 -0 -0 -0 -0 -0 -0 -0 -0 -0 -0 -0 -0 -0 -0 -0 -0 -0 -0 -0 -0 -0 -0 -0 -0 -0 -0 -0 -0 -0 -0
-0 -0 -0 -0 -0 -0 -0 -0 -0 -0 -0 -0 -0 -0 -0 -0 -0 -0 -0 -0 -0 -0 -0 -0 -0 -0 -0 -0 -0 -0 -0 -0 -0 -0 -0 -0 -0 -0 -0 -0 -0 -0 -0 -0 -0 -0 -0 -0 -0 -0 -0 -0 -0 -0 -0 -0 -0 -0 -0 -0 -0 -0 -0 -0 -0 -0 -0 -0 -0 -0 -0 -0 -0 -0 -0 -0 -0 -0 -0 -0 -0 -0 -0 -0 -0 -0
-0 -0 -0 -0 -0 -0 -0 -0 -0 -0 -0 nan -0 -0 -0 -0 -0 -0 -2 -1 -1 -0 -0 -0 -0 -0 -0 -1 -0 -0 -0 -0 -0 -0 -0 -0 -0 -0 -0 -0 -0 -0 -0 -0 -0 -0 -0 -0 -0 -0 -0 -0 -0 -0 -0 -0 -0 -0 -0 -0 -0 -0 -0 -0 -0 -0 -0 -0 -0 -0 -0 -0 -0 -0 -0 -0 -0 -0 -0 -0 -0 -0 -0 -0 -0 -0
-0 -0 -0 -0 -0 -0 -0 -0 -0 -0 -0 -0 -0 -0 -0 -0 -0 -0 -0 -0 -0 -0 -1 -0 -0 -0 -0 -0 -0 -0 -0 -0 -0 -0 nan -0 -0 -0 -0 -0 -0 -0 -0 -0 -0 -0 -0 -0 -0 -0 -0 -0 -0 -0 -0 -0 -0 -0 -0 -0 -0 -0 -0 -0 -0 -0 -0 -0 -0 -0 -0 -0 -0 -0 -0 -0 -0 -0 -0 -0 -0 -0 -0 -0 -0 -0
-0 -0 -1 -0 -0 -0 -0 -0 -0 -0 -0 -0 -0 -0 nan -1 -0 -0 -0 -0 -0 -0 -1 -1 -1 -0 -0 -0 -0 -0 -0 -0 -0 -0 -2 -1 -0 -0 -0 -0 -0 -0 -0 -0 -0 -0 -0 -0 -0 -0 -0 -0 -0 -0 -0 -0 -0 -0 -0 -0 -0 -0 -0 -0 -0 -0 -0 -0 -0 -0 -0 -0 -0 -0 -0 -0 -0 -0 -0 -0 -0 -0 -0 -0 -0 -0
-0 -0 -0 -0 -0 -0 -0 -0 -0 -0 -0 -0 -1 -1 -0 -0 -3 -3 -3 -3 -3 -1 -1 -0 -0 -0 -0 nan -0 -0 -0 -3 -0 -0 -1 -0 -0 -0 -0 -0 -0 -0 -0 -0 -0 -0 -0 -0 -0 -0 -0 -0 -0 -0 -0 -0 -0 -0 -0 -0 -0 -0 -0 -0 -0 -0 -0 -0 -0 -0 -0 -0 -0 -0 -0 -0 -0 -0 -0 -0 -0 -0 -0 -0 -0 -0
-0 -0 -0 -0 -0 -0 -0 -0 -0 -0 -0 -0 -0 -0 -0 -0 -1 -1 -0 -2 -2 -2 -2 -0 -0 -0 -0 -0 -0 -0 -0 -5 -0 -0 -0 -0 -0 -0 -0 -0 -0 -0 -0 -0 -0 -0 -0 -0 -0 -0 -0 -0 -0 -0 -0 -0 -0 -0 -0 -0 -0 -0 -0 -0 -0 -0 -0 -0 -0 -0 -0 -0 -0 -0 -0 -0 -0 -0 -0 -0 -0 -0 -0 -0 -0 -0
-0 -0 -0 -0 -0 -0 -0 -0 -0 -0 -0 -0 -0 -0 -0 -0 -1 -1 -1 -0 -0 -0 -1 -0 -0 -0 -0 -0 -0 -0 -0 -0 -3 -3 -0 -0 -0 -0 -0 -0 -0 -0 -0 -0 -0 -0 -0 -0 -0 -0 -0 -0 -0 -0 -0 -0 -0 -0 -0 -0 -0 -0 -0 -0 -0 -0 -0 -0 -0 -0 -0 -0 -0 -0 -0 -0 -0 -0 -0 -0 -0 -0 -0 -0 -0 -0
-0 -0 -0 -0 -0 -0 -0 -0 -0 -0 -0 -0 -0 -0 -0 -1 -0 -0 -0 -0 -0 -0 -0 -0 -0 -0 -0 -0 -0 -0 -0 -0 -0 -0 -1 -0 -0 -0 -0 -0 -0 -0 -0 -0 -0 -0 -0 -0 -0 -0 -0 -0 -0 -0 -0 -0 -0 -0 -0 -0 -0 -0 -0 -0 -0 -0 -0 -0 -0 -0 -0 -0 -0 -0 -0 -0 -0 -0 -0 -0 -0 -0 -0 -0 -0 -0
-0 -0 -0 -0 -0 -0 -0 -0 -0 -0 -0 -0 -0 -0 -0 -1 -0 -0 -0 -0 -0 -0 -0 -0 -0 -0 -0 -0 -0 -0 -0 -0 -0 -0 -0 -0 -0 -0 -0 -0 -0 -0 -0 -0 -0 -0 -0 -0 -0 -0 -0 -0 -0 -0 -0 -0 -0 -0 -0 -0 -0 -0 -0 -0 -0 -0 -0 -0 -0 -0 -0 -0 -0 -0 -0 -0 -0 -0 -0 -0 -0 -0 -0 -0 -0 -0
-0 -0 -0 -0 -0 -0 -0 -0 -1 -1 -0 -1 -0 -0 -1 -0 -0 -0 -0 -0 -0 -0 -0 -0 -0 -0 -0 -0 -0 -0 -0 -0 -0 -0 nan -0 -0 -0 -0 -0 -0 -0 -0 -0 -0 -0 -0 -0 -0 -0 -0 -0 -0 -0 -0 -0 -0 -0 -0 -0 -0 -0 -0 -0 -0 -0 -0 -0 -0 -0 -0 -0 -0 -0 -0 -0 -0 -0 -0 -0 -0 -0 -0 -0 -0 -0
-0 -0 -0 -0 -0 -5 -8 -3 -1 -1 -0 -0 -0 -0 -3 -1 -0 -0 -0 -0 -0 -0 -0 -0 -0 -0 -0 -0 -0 -0 -0 -0 -1 -1 -0 -0 -0 -0 -0 -0 -0 -0 -0 -0 -0 -0 -0 -0 -0 -0 -0 -0 -0 -0 -0 -0 -0 -0 -0 -0 -0 -0 -0 -0 -0 -0 -0 -0 -0 -0 -0 -0 -0 -0 -0 -0 -0 -0 -0 -0 -0 -0 -0 -0 -0 -0
-0 -0 -1 -3 -3 -4 -2 -0 -0 -0 -0 -0 -0 -0 -1 -0 -0 -0 -0 -0 -0 -0 -0 -0 -0 -0 -0 -0 -0 -0 -0 -0 -0 -0 -0 -0 -0 -0 -0 -0 -0 -0 -0 -0 -0 -0 -0 -0 -0 -0 -0 -0 -0 -0 -0 -0 -0 -0 -0 -0 -0 -0 -0 -0 -0 -0 -0 -0 -0 -0 -0 -0 -0 -0 -0 -0 -0 -0 -0 -0 -0 -0 -0 -0 -0 -0
-0 -0 -0 -0 -0 -0 -0 -0 -0 -0 -0 -0 -0 -0 -0 -0 -0 -0 -0 -0 -0 -0 -0 -0 -0 -0 -0 -0 -0 -0 -0 -0 -0 -0 nan -0 -0 -0 -0 -0 -0 -0 -0 -0 -0 -0 -0 -0 -0 -0 -0 -0 -0 -0 -0 -0 -0 -0 -0 -0 -0 -0 -0 -0 -0 -0 -0 -0 -0 -0 -0 -0 -0 -0 -0 -0 -0 -0 -0 -0 -0 -0 -0 -0 -0 -0
-0 -0 -0 -0 -0 -0 -0 -0 -0 -0 -0 -0 -0 -0 -0 -0 -0 -0 -0 -0 -0 -0 -0 -0 -0 -0 -0 -0 -0 -0 -0 -0 -0 -0 -0 -0 -0 -0 -0 -0 -0 -0 -0 -0 -0 -0 -0 -0 -0 -0 -0 -0 -0 -0 -0 -0 -0 -0 -0 -0 -0 -0 -0 -0 -0 -0 -0 -0 -0 -0 -0 -0 -0 -0 -0 -0 -0 -0 -0 -0 -0 -0 -0 -0 -0 -0
-0 -0 -0 -0 -0 -0 -0 -0 -0 -0 -0 -0 -0 -0 -0 -0 -0 -0 -0 -0 -0 -0 -0 -0 -0 -0 -0 -0 -0 -0 -0 -0 -0 -0 -0 -0 -0 -0 -0 -0 -0 -0 -0 -0 -0 -0 -0 -0 -0 -0 -0 -0 -0 -0 -0 -0 -0 -0 -0 -0 -0 -0 -0 -0 -0 -0 -0 -0 -0 -0 -0 -0 -0 -0 -0 -0 -0 -0 -0 -0 -0 -0 -0 -0 -0 -0
-0 -0 -0 -0 -0 -0 -0 -0 -0 -0 -0 -0 -0 -0 -0 -0 -0 -0 -0 -0 -0 -0 -0 -0 -0 -0 -0 -0 -0 -0 -0 -0 -0 -0 -0 -0 -0 -0 -0 -0 -0 -0 -1 -0 -0 -0 -0 -0 -0 -0 -0 -0 -0 -0 -0 -0 -0 -0 -0 -0 -0 -0 -0 -0 -0 -0 -0 -0 -0 -0 -0 -0 -0 -0 -0 -0 -0 -0 -0 -0 -0 -0 -0 -0 -0 -1
-0 -0 -0 -0 -0 -0 -0 -0 -0 -0 -0 -0 -0 -0 -0 -0 -0 -0 -0 -0 -0 -0 -0 -0 -0 -0 -0 -0 -0 -0 -0 nan nan nan -0 -0 -0 -0 -0 -0 -0 -0 -0 -0 -0 -0 nan -0 -0 -0 -0 -0 -0 -0 nan -0 -0 -0 -0 -0 -0 -0 -0 -0 -0 -0 -0 -0 -0 -0 -0 -0 -0 -0 -0 -0 -0 -0 -0 -0 -0 -0 -0 -1 -1 -1
nan nan nan -0 -0 -0 -0 -0 -0 -0 -0 -0 -0 -0 -0 -0 -0 -0 -0 -0 -0 -0 -0 -0 -0 -0 -0 -0 -0 -0 -0 nan nan nan nan -0 -0 -0 -0 -0 -0 -0 -0 -0 -0 -0 -0 nan nan -0 -0 -0 -0 -0 nan nan nan nan nan nan nan -0 -0 -0 -0 -0 -0 -0 -0 -0 -0 -0 -0 -0 -0 -0 -0 -0 -0 -0 -0 -0 -0 -0 -0 -0
-0 -0 -0 -0 -0 -0 -0 -0 -0 -0 -0 -0 -0 -0 -0 -0 -0 -0 -0 -0 -0 -0 -0 -0 -0 -0 -0 -0 -0 -0 -0 nan -0 -0 -0 nan -0 -0 -0 -0 -0 -0 -0 -0 -0 nan nan -0 -0 -0 -0 nan nan nan nan nan nan nan nan nan nan nan -0 -0 -0 -0 -0 -0 -0 -0 -0 -0 -0 -0 -0 -0 -0 -0 -0 -0 -0 -0 -0 -0 -0 -0
-0 -0 -0 -0 -0 -0 -0 -0 -0 -0 -0 -0 -0 -0 -0 -0 -0 -0 -0 -0 -0 -0 -0 -0 -0 -0 -0 -0 -0 -0 -0 nan -0 -0 -0 -1 -0 -0 -0 -0 -0 -0 -0 -0 -0 -0 nan -0 -0 -0 nan nan -0 -0 nan nan nan nan nan nan nan nan nan -0 -0 -0 -0 -0 -0 -0 -0 -0 -0 -0 -0 -0 -0 -0 -0 -0 -0 -0 -0 -0 -0 -0
-0 -0 -0 -0 -0 -0 -0 -0 -0 -0 -0 -0 -0 -0 -0 -0 -0 -0 -0 -0 -0 -0 -0 nan nan -0 -0 -0 -0 -0 -0 nan -0 -0 -0 -0 -0 -0 -0 -0 -0 -0 -0 -0 -0 -0 -0 -0 -0 -0 nan nan -0 -0 nan nan nan nan nan nan nan nan nan nan nan -0 -0 -0 -0 -0 -0 -0 -0 -0 -0 -0 -0 -0 -0 -0 -0 -0 -0 -0 -0 -0
-0 -0 -0 -0 -0 -0 -0 -0 -0 -0 -0 -0 -0 -0 -0 -0 -0 -0 -0 -0 -0 -0 nan nan nan nan -0 nan -0 -0 -0 nan -0 -0 -0 -0 -0 -0 -0 -0 -0 -0 -0 -0 -0 -0 -0 -0 -0 -0 -0 nan nan nan nan nan nan nan nan nan nan nan nan nan nan -0 -0 -0 -0 -0 nan nan -0 -0 -0 -0 -0 -0 -0 -0 -0 -0 -0 -0 -0 -0
-0 -0 -0 -0 -0 -0 -0 -0 -0 -0 -0 -0 -0 -0 -0 -0 -0 -0 nan -1 -1 -0 -0 -0 -0 nan nan nan nan nan nan nan -0 -0 -0 -0 -0 -0 -0 nan nan -0 -0 -0 -0 -0 -0 -0 -0 -0 -0 -0 nan nan nan nan nan nan nan nan nan nan nan nan nan nan nan nan nan nan nan nan -0 -0 -0 -0 -0 -0 -0 -0 -0 -0 -0 -0 -0 -0
-0 -0 -0 -0 -0 -0 -0 -0 -0 -0 nan -0 -0 -0 -0 -0 -0 -0 -0 -5 -5 -3 -0 -0 -0 -0 -0 nan nan nan nan nan -1 -1 -0 -1 nan nan nan -0 -0 -0 -0 -0 -0 -0 -0 -0 -0 -0 -0 -0 nan nan nan nan nan nan nan nan nan nan nan nan nan nan nan nan nan nan nan -0 -0 -0 -0 -0 -0 -0 -0 -0 -0 -0 -0 -0 -0 -0
-0 -0 -0 -0 -0 -0 -0 -0 -0 -0 -0 nan -0 -0 -0 -0 -2 -2 nan -5 -5 -6 -1 nan nan nan -0 -0 -5 -5 -6 nan nan nan nan -3 nan nan -0 -0 -0 -0 -0 -0 -0 -0 -0 -0 -0 -0 -0 nan -0 -0 -0 nan nan nan nan nan nan nan nan nan nan nan nan nan -0 -0 -0 -0 nan nan -0 -0 -0 -0 -0 -0 -0 -0 -0 -0 -0 -0
-0 -0 -0 -0 -0 -0 -0 -0 -0 -0 nan -0 -0 -0 -0 -0 -0 -0 -0 -2 -2 -0 -0 nan nan nan nan -10 -0 -0 -1 -5 nan nan nan nan -1 -1 -0 -0 -0 -0 -0 -0 -0 nan -0 -0 -0 -0 -0 -0 -0 -0 nan nan nan nan nan nan nan nan nan nan nan nan nan nan -0 -0 -0 nan nan nan nan nan -0 -0 -0 -1 -1 -0 -0 -0 -0 -0
-0 -0 -0 -0 -0 -0 -0 -0 -0 -0 -0 -0 -0 -0 -0 -0 -0 -0 -3 -0 -0 -0 -0 -0 -0 -0 -0 -0 -0 -0 -3 nan nan nan nan nan nan nan nan nan nan -0 -0 -0 -0 nan -0 -0 -0 -0 -0 nan -0 -0 -0 nan nan nan -0 nan nan nan nan nan nan nan nan nan nan nan nan nan nan nan nan nan -1 -1 -1 nan nan -1 -0 -0 -0 -1
-0 -0 -0 -0 -0 -0 -0 nan nan nan -0 -0 -0 -0 nan nan nan nan nan -0 -0 -0 -0 -0 -0 -0 -0 -0 nan nan nan nan nan nan nan nan nan nan nan nan nan -0 nan -0 -0 -0 -0 -0 -0 -0 -0 nan -0 -0 -0 nan nan -0 -0 nan nan nan nan nan nan nan nan nan nan nan -0 -0 -0 -0 nan nan nan nan nan -2 -2 -0 -0 -1 -1 nan
-0 -0 -0 -0 -0 nan nan -0 -0 -0 -0 -0 nan nan nan nan nan nan -0 -0 -0 -0 -0 -0 -0 -0 -0 nan nan nan nan nan nan nan nan nan nan nan nan -0 -0 -0 nan -0 -0 -0 -0 -0 -0 -0 nan nan nan nan -0 nan nan -0 -0 nan nan nan nan nan nan nan nan nan nan nan -0 -1 nan nan nan nan nan nan nan nan nan -0 -0 -1 -1 nan
-0 -0 -0 nan nan nan -0 -0 -0 -0 -0 nan nan nan nan nan nan nan -0 -0 -0 -0 -0 nan nan -0 -0 -0 nan nan nan nan nan nan nan nan nan nan nan -0 -0 -0 -0 -0 -0 -0 -0 -0 -0 nan -0 nan nan nan -0 -0 -0 nan nan -0 -0 -0 nan nan nan nan nan nan nan nan nan nan nan nan nan nan nan nan nan -0 -0 -0 -0 -0 -0 -0
-0 -0 -0 -0 -0 -0 -0 -0 -0 -0 nan nan nan nan nan nan -0 -0 -0 nan nan -0 nan nan nan -0 -0 -0 -0 -0 nan nan nan nan nan nan nan nan nan -0 -0 -0 -0 -0 -0 nan -0 -0 -0 -0 -0 nan nan nan nan nan nan nan nan nan nan nan nan nan nan nan nan nan nan nan nan nan nan nan -2 -2 nan nan -2 nan nan nan -0 -0 -0 -0
nan -0 -0 -0 -0 -0 -0 -0 nan nan nan nan nan nan nan nan -0 -0 -0 nan nan -0 nan nan nan -0 -0 -0 -0 -0 nan nan nan nan nan nan -1 -1 -3 -1 -1 -0 -0 nan nan nan -0 -0 -0 -0 -0 nan nan nan -0 nan nan nan nan nan nan nan nan nan nan nan nan nan nan nan nan nan nan nan -1 -2 nan nan nan -3 -3 nan nan -0 -0 -0
-0 -0 -0 -0 -0 -0 -0 -0 nan nan nan nan nan nan nan nan nan nan -0 -0 -0 -0 -0 nan nan nan -0 nan nan nan -0 nan nan nan nan nan nan nan nan -1 -1 -0 -0 nan nan nan nan nan nan -0 -0 -0 -0 -0 -0 nan nan nan nan nan nan nan nan nan nan nan nan nan nan nan nan nan nan nan -1 -2 -2 -2 -4 -2 -2 -2 nan nan nan -0
-0 -0 -0 -0 -0 -0 -0 -0 nan nan nan -0 nan nan nan -0 nan nan -0 -0 -0 -0 -0 -0 -0 nan nan -0 nan nan -0 -0 -0 -0 nan nan nan nan nan nan nan -0 -1 nan nan nan -0 -0 -0 -0 -0 -0 nan nan nan nan nan nan nan nan nan nan nan nan nan nan nan nan nan nan nan -2 -0 -0 -0 -1 -3 -3 nan -4 -4 -2 -1 -0 -0 -0
-0 -0 -0 -0 -0 -0 nan nan nan nan nan nan nan nan nan -0 -0 -0 -0 -0 -0 -0 -0 -0 -0 -0 nan -0 nan nan -0 -0 nan nan nan nan nan nan nan nan nan -0 -0 -0 -0 -0 -0 -1 -1 -0 -0 -0 nan nan nan nan nan nan nan nan nan nan nan nan nan nan nan nan nan nan nan -1 -0 -0 -0 -1 -2 -2 nan nan nan -6 -3 nan nan -0
-0 -0 -0 -0 -0 -0 -0 nan nan nan nan -0 nan nan nan -0 -0 -0 -0 nan nan -0 nan nan nan -0 -0 -0 -0 -0 -0 -0 nan nan nan nan nan nan nan nan nan -0 -0 -0 -0 -0 nan nan nan nan nan nan nan nan nan nan nan nan nan nan nan nan nan nan nan nan nan nan nan nan nan nan nan nan nan -1 -2 -2 nan nan nan -7 -3 -0 -0 -0
-0 -0 -0 -0 -0 nan -0 nan nan nan -0 -0 nan nan nan nan nan nan nan nan nan nan nan nan nan nan -0 -0 -0 -0 -0 nan nan nan nan nan nan nan nan -0 -0 -0 -0 -0 -0 -0 nan nan nan nan nan nan nan nan nan nan nan nan nan nan nan nan nan nan nan nan nan nan nan nan nan nan nan nan nan -1 -1 -1 -3 nan nan nan -4 -0 -0 -0
-0 -0 -0 nan nan -0 -0 nan nan nan -0 -0 -0 -0 nan nan nan nan nan nan nan nan nan nan nan nan nan nan -0 -0 -0 nan nan nan nan nan nan nan nan nan nan -0 -0 -0 -0 -0 nan nan nan nan nan nan nan nan -0 -0 -0 -0 nan nan nan nan nan nan nan nan -1 nan nan nan nan nan -3 -3 nan -1 -1 -1 nan nan nan nan -3 -1 -1 -0
Wind_Speed
9 9 10 12 13 13 11 13 14 14 13 11 11 11 11 12 12 13 15 15 14 14 13 13 14 15 17 20 23 25 27 28 29 29 30 30 30 30 30 31 31 31 31 31 31 32 32 32 32 32 32 32 32 32 32 32 31 31 31 31 31 31 31 31 31 31 31 31 31 31 31 31 31 31 31 31 30 30 30 29 29 29 29 29 29 29
10 10 9 12 14 13 11 13 14 14 13 13 12 12 12 13 12 11 11 12 13 13 12 13 14 16 18 19 22 24 26 27 28 29 29 29 30 30 30 30 31 31 31 31 32 32 32 32 32 32 32 32 31 31 31 31 31 31 31 31 31 31 31 31 31 31 30 31 31 31 31 31 30 30 30 30 29 29 28 28 28 28 27 27 27 27
10 10 9 11 12 12 11 13 13 13 14 14 14 14 15 14 12 10 9 10 11 12 12 13 14 15 17 17 20 23 25 26 27 28 28 29 29 30 30 30 31 31 31 31 31 31 31 31 31 31 31 31 31 31 31 31 31 31 30 30 30 30 30 30 30 30 30 30 30 30 30 29 28 28 28 28 28 27 27 27 26 26 26 27 27 27
10 10 10 9 10 11 12 12 12 12 12 13 14 15 15 13 10 9 9 10 11 12 12 13 14 14 14 14 17 20 24 25 27 28 29 29 30 30 30 30 31 31 31 30 30 30 31 31 31 31 31 31 31 31 31 30 30 30 30 30 30 30 30 29 29 29 29 29 29 28 28 27 26 26 27 27 27 27 27 26 26 26 26 27 27 27
10 10 10 9 9 10 11 12 12 12 11 11 12 12 12 10 9 9 10 11 12 12 12 12 13 13 13 12 15 19 23 26 27 28 29 29 30 30 30 30 30 30 30 30 30 30 30 30 31 31 31 31 31 31 31 31 30 30 30 30 30 29 29 29 29 29 28 28 28 27 27 26 26 26 27 27 27 28 27 27 27 27 27 28 28 28
10 10 10 9 9 9 9 10 10 10 10 9 9 9 9 9 9 10 10 11 11 11 11 11 12 12 13 13 16 19 23 25 27 28 28 28 29 29 29 29 29 29 29 29 29 30 30 31 31 31 31 31 31 31 31 31 31 30 30 30 30 29 29 29 29 29 29 29 28 28 27 27 27 27 28 28 28 28 28 28 28 28 29 29 29 29
10 9 9 9 9 9 8 9 9 9 8 7 7 8 8 9 10 10 11 11 11 10 10 11 11 12 13 14 17 19 21 23 24 25 26 26 27 27 27 27 28 28 28 29 29 30 30 31 31 31 31 31 31 31 31 31 31 30 30 30 30 29 29 29 29 29 29 29 29 29 28 28 28 28 29 29 29 29 29 29 29 29 29 29 30 30
11 10 9 10 10 9 8 7 7 7 7 7 8 8 9 9 9 10 11 12 11 11 10 11 11 11 12 13 15 16 17 17 18 19 20 21 22 23 24 26 27 28 28 29 30 30 31 31 31 31 31 31 31 31 31 31 31 30 30 30 30 30 30 30 30 30 30 30 30 29 29 29 29 29 29 29 29 29 29 29 29 29 29 29 29 30
12 12 11 10 10 9 8 6 5 6 7 8 8 9 10 10 10 10 10 10 10 10 10 11 11 11 11 12 13 14 14 15 14 14 15 16 17 19 21 23 25 27 28 29 30 30 30 31 31 31 31 31 31 31 31 31 31 31 30 30 30 30 30 30 30 30 30 29 29 29 29 29 29 29 29 29 29 29 29 29 29 29 29 29 29 29
12 12 11 10 8 7 6 6 6 7 8 8 8 9 9 10 11 11 11 10 10 9 9 10 11 11 11 11 12 12 14 14 16 17 18 18 19 21 22 22 23 24 27 28 29 29 30 30 30 30 30 30 30 30 30 30 30 30 30 30 30 29 29 29 29 29 29 29 29 29 29 29 29 29 29 29 29 28 28 28 28 28 28 28 29 29
11 10 9 7 5 4 5 6 7 8 9 9 9 9 9 10 11 12 13 12 11 10 10 10 10 11 11 11 11 12 12 12 13 15 17 19 21 22 22 22 22 23 25 26 27 28 28 28 29 29 29 29 29 30 29 29 29 29 29 29 29 29 29 29 29 29 29 29 29 29 29 29 29 29 29 29 29 28 28 28 28 28 28 28 29 29
9 7 5 5 4 5 6 7 8 9 9 10 10 10 10 9 10 11 12 13 12 12 11 10 10 10 10 11 11 11 11 11 11 11 11 13 14 15 16 16 17 18 20 21 22 23 25 26 27 27 27 27 28 28 28 28 28 28 28 29 29 29 29 29 29 29 29 29 29 29 29 29 29 29 29 29 29 29 29 28 28 28 28 28 29 29
6 5 4 5 6 7 8 9 9 9 9 9 10 10 10 9 9 10 11 12 12 12 12 11 10 10 10 10 9 10 10 10 10 10 9 10 10 10 10 11 11 12 13 14 15 16 20 22 24 24 25 25 26 27 27 27 27 28 28 28 29 29 29 29 29 29 30 30 30 30 30 30 30 30 30 30 29 29 29 29 29 29 29 29 29 29
6 6 6 8 8 9 9 10 10 10 10 9 10 10 10 10 10 10 11 11 11 11 11 11 11 10 8 8 9 9 9 10 10 9 9 9 9 9 10 11 11 11 11 12 12 13 16 17 18 19 21 23 24 25 24 25 26 27 28 28 29 29 29 29 30 30 30 30 30 30 30 30 30 30 30 30 30 30 30 30 30 29 30 29 30 30
7 8 9 10 10 10 9 10 10 10 10 9 9 10 10 10 10 10 10 11 11 11 10 11 11 10 8 7 7 8 9 9 9 9 10 10 10 10 11 11 11 11 11 11 12 13 15 15 14 14 16 19 20 22 23 24 26 28 28 29 29 30 30 30 30 30 30 30 30 30 30 30 30 30 30 30 30 30 30 30 30 30 30 30 30 30
8 9 10 11 11 10 9 9 10 10 10 10 10 10 10 10 10 10 10 10 10 9 9 10 11 10 8 7 7 8 9 9 9 9 10 10 10 10 11 12 12 12 11 11 11 12 12 12 13 13 14 18 21 24 26 26 27 28 29 30 30 30 31 31 31 31 30 30 30 30 30 30 30 30 30 29 29 29 29 29 29 29 29 29 29 30
9 9 10 10 11 10 9 9 9 10 10 9 9 9 9 10 10 9 9 9 8 8 8 9 9 9 8 7 7 7 8 9 9 9 10 11 11 10 10 11 12 12 11 11 11 11 11 11 11 12 13 17 21 25 27 27 28 29 30 30 31 31 31 31 31 30 30 30 30 30 30 30 30 30 30 29 29 29 29 29 29 29 29 29 29 29
9 9 10 10 10 10 9 9 9 9 9 10 10 10 9 9 9 9 8 8 8 8 8 8 8 8 8 8 7 7 8 9 9 10 11 11 11 10 10 10 11 11 11 11 11 11 11 11 11 12 14 20 24 26 28 29 29 30 30 31 31 31 31 30 30 30 30 30 30 30 30 30 30 30 30 30 30 30 30 30 30 30 30 30 30 30
10 9 9 9 9 9 9 9 9 9 9 9 10 10 10 9 9 8 8 8 8 9 9 9 9 9 9 9 9 9 9 9 10 10 11 11 11 10 10 10 11 11 11 11 11 11 11 11 13 16 20 24 26 27 28 29 29 30 30 30 30 30 30 30 30 30 30 30 30 30 30 31 31 31 31 31 30 30 30 30 30 30 30 30 30 30
10 9 9 9 9 9 9 9 9 10 10 10 10 9 9 9 9 9 9 9 9 9 9 9 10 10 9 10 10 10 10 10 10 10 11 11 11 10 9 10 11 11 11 11 10 10 10 11 13 16 20 23 25 27 28 28 29 29 29 30 30 30 30 30 30 31 31 31 31 31 31 31 31 31 31 31 31 30 30 30 30 30 30 30 31 31
10 10 9 9 9 9 9 9 10 11 11 10 10 9 9 9 9 10 9 9 9 9 9 9 9 9 9 10 11 11 11 10 10 9 9 9 9 9 8 9 10 11 12 11 10 10 11 11 11 12 16 21 24 26 27 28 29 29 30 30 30 31 31 31 31 31 31 31 31 31 31 31 31 31 31 31 30 30 30 30 30 30 30 31 31 31
10 10 11 11 11 10 10 10 11 12 11 10 9 9 9 9 10 10 10 10 10 10 10 10 10 9 10 11 11 11 11 10 9 9 8 9 10 10 8 9 10 11 12 11 11 10 11 11 11 12 16 21 25 27 28 29 29 30 30 30 31 31 31 31 31 31 31 31 31 30 30 30 30 30 30 30 30 30 30 30 30 30 31 31 31 31
10 10 11 11 11 10 10 10 9 9 10 10 10 10 9 10 10 11 11 10 10 10 10 10 10 10 10 10 11 11 10 9 9 8 7 9 10 10 8 9 9 10 11 10 10 11 11 11 11 13 17 22 25 27 28 29 29 30 30 30 30 30 30 30 30 30 30 30 30 30 30 30 30 30 31 31 31 30 30 30 30 31 31 31 31 31
11 11 11 10 9 9 8 8 9 9 10 10 10 10 10 10 10 10 10 10 10 9 9 9 10 10 10 10 10 10 9 9 8 7 6 8 9 10 8 8 9 11 11 10 11 11 12 12 12 12 14 19 23 26 27 28 29 29 29 29 30 30 30 30 30 30 30 30 30 30 30 30 30 30 30 30 30 30 30 30 30 31 31 31 31 31
11 10 10 9 10 11 12 13 14 14 13 12 11 11 11 11 12 11 11 10 9 9 9 9 10 10 10 10 10 9 9 8 8 7 6 7 8 10 9 8 9 11 11 11 11 11 12 12 12 12 12 16 20 24 26 27 28 28 28 29 29 29 29 29 29 29 30 30 30 30 30 30 30 30 30 30 30 30 30 30 30 30 31 31 31 31
13 13 13 15 18 21 23 23 22 21 20 17 13 11 11 11 11 10 10 9 9 9 9 10 10 10 9 9 9 8 8 8 8 7 7 7 8 9 9 8 9 10 11 11 11 11 12 12 12 12 12 13 17 20 23 25 26 27 27 28 28 28 29 29 29 29 30 30 30 30 30 30 30 30 30 30 30 30 31 31 31 31 31 31 31 31
18 19 21 23 24 25 25 24 24 24 24 22 19 16 13 11 10 9 9 9 8 9 9 10 10 10 10 9 9 8 8 8 7 7 7 7 8 9 8 8 9 10 11 11 11 11 12 13 12 12 12 11 13 15 20 22 24 25 26 27 28 28 28 29 29 29 30 30 30 30 30 30 30 30 30 30 31 31 31 31 31 31 31 30 28 26
18 19 21 22 22 23 23 23 22 22 22 22 22 20 15 11 9 9 9 9 9 9 9 9 10 10 9 9 9 9 9 8 7 7 7 7 7 7 8 8 9 10 11 10 10 11 12 12 12 11 11 11 11 12 16 20 22 24 25 26 27 28 28 28 29 29 29 29 30 30 30 30 30 30 30 30 30 30 30 31 31 30 28 24 19 16
16 18 19 20 20 20 20 20 19 19 20 20 20 18 14 10 8 9 9 9 8 9 9 10 9 9 9 9 10 10 9 8 8 7 7 6 7 7 8 8 9 9 9 10 10 10 9 9 9 10 10 11 11 11 13 16 18 20 21 24 25 26 26 27 27 28 28 28 29 29 29 29 30 30 30 30 30 30 30 31 30 27 22 18 15 13
13 15 15 16 16 16 16 15 15 16 17 18 18 17 13 9 8 8 9 8 8 9 9 10 10 9 9 9 9 9 8 8 7 7 7 6 7 7 8 9 9 9 8 8 8 8 8 7 7 8 9 11 11 11 11 13 13 14 15 18 19 21 23 24 26 26 27 27 28 28 28 29 29 29 29 30 30 30 30 31 29 24 16 14 13 13
12 12 12 12 12 12 12 11 11 12 14 15 15 14 11 9 8 8 8 8 8 8 9 9 10 9 9 8 8 7 7 7 8 8 7 6 6 7 8 9 9 9 7 7 7 8 9 8 7 7 9 10 11 11 11 12 12 12 11 12 13 15 19 21 23 24 24 25 26 27 27 28 28 28 29 29 29 30 30 31 28 23 15 14 13 13
11 11 10 10 10 10 9 9 9 9 10 10 10 10 10 9 8 8 7 7 7 8 8 9 9 9 9 8 8 8 7 8 9 10 9 7 6 7 8 9 9 9 8 7 7 8 8 8 8 8 9 10 10 11 11 12 11 11 11 11 11 13 16 18 19 20 20 21 23 24 26 26 27 28 28 29 29 29 30 31 28 24 16 14 13 14
11 10 9 9 9 9 8 8 8 8 8 8 8 8 9 9 9 8 8 7 7 7 8 9 9 10 9 9 9 9 8 9 10 11 11 8 6 6 8 8 9 9 8 8 8 8 7 8 9 10 10 10 10 10 11 11 11 11 11 11 11 11 14 14 15 15 15 17 18 20 22 24 25 26 27 28 28 28 29 30 29 25 20 15 13 13
10 10 10 9 9 9 8 9 9 9 8 8 8 8 8 8 8 8 8 8 8 8 8 8 9 9 10 9 9 9 10 10 12 12 12 9 7 7 8 9 9 9 9 8 8 8 8 9 10 10 10 10 10 10 10 11 11 11 10 10 10 11 11 11 11 12 13 13 14 14 16 18 19 21 23 24 25 26 27 28 28 27 25 19 16 14
10 10 9 9 9 9 9 9 9 9 9 8 8 8 8 8 8 8 8 8 8 8 8 8 9 9 9 9 9 10 10 11 12 13 12 10 8 7 8 9 9 9 9 8 8 8 8 10 11 11 10 10 10 10 9 10 10 10 10 10 10 10 11 10 11 11 12 12 12 12 12 12 13 15 17 19 21 23 25 27 28 28 28 26 22 17
9 9 9 9 9 9 9 9 9 9 9 8 8 8 9 9 9 9 9 9 9 9 10 9 9 9 9 9 10 10 11 12 13 13 13 11 9 8 8 8 9 9 9 9 9 8 9 10 11 12 12 12 11 10 9 9 9 10 10 10 10 10 10 10 10 11 11 11 11 11 11 11 11 12 13 18 21 23 25 27 28 28 29 29 27 24
9 9 9 8 8 8 9 9 9 9 9 8 8 9 9 9 10 10 9 9 9 10 10 11 11 11 11 10 10 11 11 12 13 14 14 12 10 9 8 8 9 9 9 9 9 9 9 10 11 12 11 11 10 9 10 10 10 10 10 10 10 10 10 10 10 10 11 11 12 12 12 12 12 12 13 17 20 22 23 25 26 26 27 28 28 28
9 9 9 8 8 8 8 8 8 8 8 8 9 9 10 10 11 11 10 10 10 11 11 11 11 12 14 14 14 13 13 14 15 16 16 13 11 10 9 9 9 10 9 9 9 9 10 10 11 11 11 10 11 11 12 11 11 11 11 11 10 10 10 10 10 10 10 11 12 13 13 13 12 12 13 14 14 14 15 16 17 20 22 23 25 27
8 9 9 9 8 8 8 8 8 9 9 9 9 10 10 11 12 11 10 10 10 11 11 11 11 11 13 14 15 15 15 15 15 15 15 13 12 10 10 10 10 10 10 9 9 9 9 10 10 10 10 11 11 12 12 11 12 12 12 12 11 10 10 9 9 10 10 11 12 13 13 12 12 11 12 11 11 11 12 12 13 14 15 14 16 19
9 9 9 9 9 8 8 9 9 9 9 9 10 10 10 10 10 10 9 10 10 10 11 12 11 11 12 12 13 13 13 12 12 13 13 12 11 10 9 10 10 10 10 9 9 9 10 10 11 11 11 11 11 11 11 11 12 12 13 11 10 10 11 10 10 10 10 10 11 12 12 11 11 11 11 11 11 11 11 11 11 11 12 10 10 11
9 9 9 9 9 9 9 9 9 9 9 9 9 9 9 9 9 9 9 9 9 9 9 10 11 11 11 11 12 12 12 12 12 12 11 12 12 11 10 10 9 9 10 9 9 9 9 10 11 12 11 11 11 12 13 13 13 14 14 12 12 12 13 12 12 11 10 10 10 11 12 13 13 12 12 12 11 11 11 11 12 12 11 10 9 9
10 9 9 9 8 8 8 9 10 10 10 9 9 8 8 8 8 9 9 9 9 9 9 9 10 11 12 11 11 11 11 10 11 11 11 12 12 11 10 10 9 9 9 9 10 10 10 10 11 11 11 11 11 11 11 13 13 13 12 12 13 14 14 13 11 10 9 10 11 12 13 13 12 12 12 12 12 12 12 12 13 14 12 10 9 9
9 9 9 9 9 9 10 10 10 9 9 8 8 8 8 8 8 9 9 9 10 10 9 9 9 10 11 11 11 11 10 9 10 10 10 10 11 11 11 11 10 9 9 9 9 10 10 11 11 11 11 10 10 11 12 12 12 12 12 12 12 11 9 10 10 11 11 11 12 12 12 11 11 11 11 12 12 11 12 13 14 15 13 11 9 9
9 9 9 9 9 9 9 9 9 8 8 8 9 8 8 8 9 9 9 9 9 10 9 9 9 10 10 11 11 11 11 10 10 10 9 10 10 10 10 11 11 10 9 9 9 9 10 11 11 11 10 10 10 10 11 12 12 12 11 11 11 11 10 10 12 12 12 12 12 12 12 12 12 12 12 12 11 11 11 11 10 10 11 10 9 9
9 9 9 8 8 8 9 9 9 9 9 9 9 9 9 9 9 9 8 9 9 10 9 9 8 8 9 10 10 10 10 10 9 9 8 9 10 11 10 9 9 9 9 9 9 9 9 10 11 11 10 9 10 10 11 12 12 12 12 12 12 12 12 12 12 12 12 13 13 13 14 14 13 13 12 11 11 10 10 10 9 9 9 9 9 9
8 9 9 8 8 9 9 9 9 9 9 9 9 9 9 9 9 8 9 9 9 9 9 9 8 8 9 10 10 10 10 10 10 9 8 7 7 7 7 8 8 8 8 9 9 9 9 10 11 11 10 10 10 11 11 11 11 11 11 12 12 11 12 12 11 11 12 12 13 14 16 15 14 13 12 11 11 11 10 9 9 9 9 8 8 8
9 9 9 9 9 9 9 9 9 9 10 10 10 10 9 9 9 9 9 9 9 9 9 9 9 9 10 10 10 10 10 11 11 10 9 8 8 7 7 7 8 9 9 9 9 10 10 11 11 11 10 10 10 11 11 10 10 10 11 11 11 11 11 11 11 11 11 12 13 15 17 16 14 13 12 12 11 10 9 9 8 8 8 8 8 8
9 9 9 9 9 9 9 9 9 9 10 10 11 10 10 10 10 10 9 9 9 9 9 9 9 9 10 10 10 10 11 11 11 10 10 9 9 8 7 7 8 8 9 9 10 11 11 11 12 12 11 10 10 10 10 10 9 10 10 11 11 11 12 12 11 11 11 12 14 16 16 14 13 12 13 12 11 10 10 9 8 7 7 7 7 8
9 9 9 9 9 9 10 9 9 10 10 11 11 11 10 11 11 11 9 9 9 9 8 9 9 10 10 11 11 11 11 11 10 10 10 9 9 8 8 8 8 8 8 9 9 9 9 10 11 12 11 11 10 10 10 10 10 10 10 10 10 11 11 11 12 12 12 13 15 16 15 13 12 12 12 12 12 12 12 11 9 8 6 6 7 7
9 9 9 9 9 9 9 10 10 10 10 11 11 11 11 10 10 9 9 8 8 8 8 9 9 10 10 11 11 11 11 10 10 10 10 9 9 8 9 9 9 9 9 8 8 8 8 7 7 9 11 11 11 10 9 10 10 10 10 10 10 10 10 11 11 12 12 13 14 15 15 13 12 11 10 11 12 12 12 11 10 8 6 6 6 7
9 9 9 9 9 9 9 9 10 10 10 11 11 11 11 10 10 9 9 8 8 9 9 9 9 10 10 11 11 11 11 10 10 10 10 9 8 8 9 9 9 9 9 9 9 8 8 7 7 6 6 8 9 9 8 9 10 10 10 10 9 9 10 10 11 12 13 13 13 13 13 13 12 11 10 10 11 12 12 12 12 11 9 8 7 8
Wind_Direction
296 297 297 298 297 295 293 294 295 295 296 297 297 297 297 296 295 294 295 295 295 294 292 290 289 289 289 290 290 291 292 293 293 294 294 293 293 293 293 293 293 293 293 294 294 295 295 295 296 295 295 294 293 293 292 291 290 289 289 288 287 286 286 285 284 284 283 282 282 281 280 280 279 279 278 278 278 277 276 276 275 275 274 272 269 268
295 295 295 297 296 295 293 295 295 296 297 298 298 298 297 297 297 296 296 294 292 291 290 289 289 290 291 292 293 293 293 293 292 292 292 292 292 293 293 293 294 294 294 295 295 295 295 295 295 294 293 292 292 291 290 289 288 288 287 286 285 285 284 283 283 282 282 281 281 281 281 281 281 280 280 279 278 277 275 275 274 273 272 270 268 267
298 297 297 297 296 295 295 298 297 296 296 297 297 298 298 298 298 297 295 292 290 289 289 291 292 294 295 295 293 292 292 291 291 292 292 293 294 294 295 295 295 295 295 295 294 294 293 293 293 292 291 291 290 289 289 288 287 287 286 286 285 284 284 283 282 282 281 281 281 281 281 282 282 283 282 281 279 277 274 273 272 271 270 269 267 266
298 298 299 298 296 294 294 297 298 297 296 296 297 298 299 299 298 295 292 291 291 292 293 295 295 295 295 293 291 291 292 292 293 294 294 295 295 295 295 295 294 294 293 292 292 291 291 291 291 291 291 291 290 290 289 289 288 288 287 287 286 285 285 284 284 283 283 282 282 282 283 283 284 284 284 283 281 279 276 275 274 273 272 271 269 268
295 295 298 297 295 293 293 295 296 297 297 297 298 300 301 298 294 290 289 291 292 294 295 295 295 294 293 292 292 293 294 294 295 295 296 296 295 295 294 293 292 292 291 290 290 290 290 291 292 292 292 292 291 291 290 290 289 289 289 288 288 287 287 286 286 285 285 285 284 285 285 285 285 285 284 284 283 282 281 279 278 278 277 275 274 272
292 292 294 294 293 294 295 296 296 297 298 299 300 300 298 293 291 290 292 294 294 294 295 294 295 295 295 296 296 296 296 296 296 296 295 294 294 293 292 291 290 290 289 290 290 290 291 292 292 292 292 291 291 291 290 290 290 290 289 289 289 289 289 288 288 287 287 287 287 287 287 287 286 285 284 284 283 283 282 281 280 279 278 277 276 275
289 288 289 289 290 291 292 294 297 299 301 301 299 295 291 290 291 293 294 294 295 295 296 297 297 298 298 298 298 297 296 296 295 294 293 292 291 290 290 290 289 289 290 290 291 292 292 292 292 292 291 291 290 290 290 290 290 290 290 290 290 290 290 289 289 288 288 288 288 288 288 287 287 286 285 284 283 282 281 280 279 278 277 277 276 275
289 288 287 287 289 290 290 292 297 301 301 298 296 295 294 293 293 292 293 294 296 299 301 301 301 300 299 299 298 296 295 294 293 291 291 290 290 290 290 290 290 290 291 291 292 292 292 291 291 291 290 290 290 290 290 291 291 291 291 291 291 291 290 290 289 289 288 288 288 288 288 288 287 286 284 283 282 281 280 279 278 277 276 275 275 274
286 287 286 286 288 292 295 296 297 295 293 291 293 295 297 297 296 295 297 299 301 304 305 304 302 300 298 297 295 294 292 290 290 290 291 291 291 291 291 291 291 291 291 291 291 291 291 291 290 290 290 290 291 291 291 291 292 291 291 291 290 290 289 289 288 288 288 287 287 287 287 287 286 285 283 282 281 279 278 277 276 275 275 274 273 272
280 282 284 286 289 292 296 298 297 294 291 288 288 290 293 298 302 305 306 305 306 305 304 302 301 299 297 295 293 292 291 291 290 291 292 292 292 292 291 291 291 291 291 291 290 290 290 290 290 290 290 290 290 291 291 291 291 290 290 289 289 288 288 287 287 287 287 286 286 286 286 285 284 283 282 281 279 278 277 276 275 274 273 272 272 271
279 280 283 289 292 293 289 293 295 297 296 292 290 291 294 302 307 310 310 308 307 305 302 299 297 297 297 297 296 295 294 293 293 292 292 292 291 291 290 290 289 289 289 289 289 289 289 289 289 289 289 289 289 289 289 289 289 288 288 287 287 287 287 287 287 286 286 286 285 285 284 283 282 281 280 278 277 276 275 274 273 272 271 270 270 269
282 286 290 295 298 297 294 294 296 298 300 300 301 302 304 308 311 310 306 305 305 304 301 297 294 294 295 297 298 298 296 294 294 294 293 293 292 291 290 289 288 288 289 288 288 288 288 289 288 288 288 288 288 287 287 287 287 287 287 287 287 287 287 286 286 286 285 284 284 283 282 281 279 278 277 276 275 274 273 272 271 270 269 268 267 267
287 293 298 301 301 300 301 302 303 304 306 307 308 309 310 311 310 306 300 299 299 299 299 297 295 294 294 295 295 295 294 293 293 293 294 294 294 294 292 291 290 290 291 290 289 289 289 288 288 288 287 287 287 286 286 286 286 287 287 287 287 286 286 285 285 284 283 282 281 281 279 278 277 276 275 274 273 272 271 270 269 268 267 266 265 265
302 306 304 301 301 302 303 305 306 307 308 309 308 307 307 307 304 301 296 294 294 295 296 295 295 295 295 293 291 291 292 293 294 295 295 295 296 296 296 294 293 293 293 291 289 288 289 289 289 288 287 286 286 286 286 286 286 286 286 286 286 285 285 284 283 283 282 281 280 279 278 277 276 275 274 273 272 271 270 269 267 266 265 264 263 262
311 309 304 301 301 303 305 306 306 305 306 306 305 304 303 300 298 296 294 293 295 296 297 295 293 292 292 293 294 295 296 296 297 297 297 296 296 298 298 295 293 291 291 290 289 289 290 288 287 285 285 284 284 285 285 286 286 286 286 286 285 285 285 284 283 283 282 281 281 280 279 278 277 276 275 274 273 272 270 269 268 266 265 264 262 261
307 304 300 300 301 302 304 305 305 304 304 303 302 301 299 297 296 295 295 295 296 298 298 298 297 297 294 296 298 300 300 299 297 297 298 297 297 298 298 295 293 291 290 288 288 288 288 286 284 283 283 283 284 285 286 286 286 287 287 287 287 286 286 286 285 284 284 283 282 281 280 279 279 278 276 275 274 273 272 271 270 268 267 266 264 263
300 298 298 299 300 302 304 304 302 301 300 299 298 295 293 293 293 294 294 294 295 296 297 301 303 304 303 303 302 302 304 302 300 298 298 296 296 297 298 294 291 290 289 287 287 287 287 285 283 282 282 283 285 286 287 288 288 288 288 288 288 288 287 287 286 285 284 284 283 282 281 281 280 279 278 277 276 275 274 273 272 271 270 269 267 266
296 297 298 299 301 302 303 301 299 297 296 295 294 293 291 290 290 291 291 293 295 297 300 302 302 301 303 304 306 308 311 306 303 300 298 295 295 296 296 292 288 287 287 286 286 285 285 284 283 283 284 286 287 288 289 289 289 289 289 289 288 288 287 287 286 285 285 284 283 282 282 281 280 280 279 278 277 276 275 274 273 272 271 270 269 268
298 299 300 300 299 299 298 297 295 295 295 294 294 294 293 291 291 291 292 294 297 299 301 300 297 295 296 296 301 307 313 308 304 300 297 295 295 296 297 292 288 286 285 285 286 287 287 286 286 286 287 288 288 289 289 289 288 288 288 288 288 288 287 287 286 286 285 284 283 283 282 281 280 279 278 277 276 275 274 273 272 271 270 269 268 267
298 298 296 296 295 294 292 290 290 291 292 293 294 293 292 293 295 297 297 298 298 298 296 294 293 293 295 297 301 306 312 308 303 297 294 293 293 295 296 292 289 286 286 287 289 290 290 290 289 288 287 287 287 288 288 288 288 288 288 288 288 288 288 287 287 286 285 284 283 283 281 281 280 279 278 277 276 275 274 273 272 271 270 269 268 267
294 292 291 291 291 290 288 287 288 290 292 294 293 292 293 298 300 302 302 301 299 297 295 293 293 296 299 300 301 304 308 305 300 295 293 292 292 293 295 293 291 290 289 291 292 293 292 290 289 287 286 287 287 288 288 289 289 289 289 289 288 288 288 287 286 286 285 284 283 282 281 280 280 279 278 277 276 275 274 273 272 271 270 269 268 267
289 288 288 288 286 284 283 285 288 290 293 294 295 297 302 305 305 303 303 301 299 298 297 296 296 297 298 296 297 298 302 299 296 293 294 292 291 292 296 296 294 293 292 293 294 294 291 289 287 286 287 288 289 289 290 289 289 289 289 288 288 288 287 287 286 285 285 284 283 282 281 280 279 279 278 277 276 275 274 273 272 271 270 269 267 266
285 286 288 287 285 283 283 285 288 291 294 295 297 299 302 303 302 301 301 301 299 298 297 296 295 294 293 292 292 294 296 294 292 291 291 290 292 295 300 300 297 293 291 293 295 295 293 291 290 290 290 290 289 289 289 289 289 288 288 288 288 288 287 287 286 285 284 284 283 282 281 280 279 278 277 276 275 275 273 272 271 270 269 268 267 266
287 287 287 287 285 285 287 291 295 298 300 300 300 299 299 298 297 296 297 297 296 295 295 294 294 292 291 292 292 293 293 294 294 292 289 287 290 294 300 300 296 293 291 294 297 298 296 293 291 290 289 289 288 288 289 289 288 288 288 288 288 288 287 287 286 285 284 283 282 281 281 280 279 279 278 277 277 276 275 274 272 271 270 269 268 266
288 288 288 290 293 296 298 300 302 303 303 303 302 301 300 299 297 296 295 294 294 294 296 297 296 296 296 297 296 294 294 296 296 294 290 287 289 292 297 300 298 295 294 296 298 297 295 293 291 290 289 288 288 289 289 289 288 288 288 288 288 287 287 286 285 285 284 284 284 283 283 282 282 281 281 280 279 278 277 276 275 273 272 271 270 268
293 295 298 301 302 302 303 302 302 302 303 303 303 303 303 303 301 299 296 296 298 300 301 299 298 297 298 298 296 295 296 298 297 293 290 289 290 293 297 299 298 295 295 297 297 297 295 293 292 291 290 289 289 289 289 289 288 288 288 288 288 287 287 287 287 287 287 287 286 286 285 284 284 283 282 281 279 278 277 276 275 274 273 272 271 269
299 301 303 303 303 303 302 302 302 302 304 304 305 305 305 305 303 300 298 301 304 304 302 299 298 297 298 297 296 297 300 300 298 293 290 289 290 292 297 300 300 298 297 296 296 295 294 293 293 292 291 290 290 289 289 289 289 289 289 289 289 289 289 289 289 289 288 287 286 285 284 283 282 281 280 279 278 277 276 275 274 273 272 271 270 268
304 304 304 303 303 302 302 303 303 304 305 305 305 305 306 305 303 300 299 303 305 303 298 297 297 298 299 299 299 299 300 298 296 295 296 292 290 291 297 301 302 300 299 297 295 293 292 291 291 291 291 291 291 291 291 291 292 292 291 291 290 290 289 289 288 287 286 286 285 284 283 283 282 281 280 279 278 277 276 275 274 273 272 270 267 264
305 304 303 303 303 303 304 304 305 305 304 304 305 306 307 304 299 297 297 300 300 298 295 295 295 296 297 298 298 297 295 294 296 301 306 298 291 291 298 301 302 301 301 299 297 294 290 289 290 292 294 295 295 295 294 295 294 293 292 291 290 289 288 287 286 286 286 285 285 285 284 283 283 282 281 280 280 279 278 277 276 275 273 270 266 263
308 307 305 305 304 305 305 305 304 303 303 304 305 306 305 300 294 292 293 295 295 293 293 295 295 296 296 298 298 296 292 294 302 311 314 303 295 294 300 301 302 302 305 304 303 300 295 292 293 296 299 299 299 298 297 296 294 293 291 290 289 287 287 286 286 286 286 286 286 286 285 285 284 284 283 282 281 280 279 278 278 276 273 269 265 263
312 311 308 307 307 307 306 305 304 304 304 305 306 305 302 297 293 290 291 291 291 291 292 293 294 295 296 298 298 296 294 299 307 313 314 302 295 295 302 301 300 301 304 305 305 305 304 302 301 301 302 301 299 297 295 294 293 292 291 290 288 287 286 287 287 287 288 288 287 287 286 286 285 284 283 282 281 280 279 278 277 275 272 268 265 262
312 310 308 308 308 307 306 306 305 305 305 305 304 302 299 296 294 292 291 290 289 288 289 290 290 291 291 290 289 289 292 298 305 309 310 300 294 294 298 298 298 299 301 298 297 298 302 304 307 307 306 301 298 296 294 293 292 292 291 290 288 287 288 289 289 289 289 289 288 288 287 286 285 284 283 282 281 279 278 277 276 274 270 267 264 261
309 307 307 307 307 307 307 307 307 306 305 303 302 300 300 298 297 295 293 291 288 286 286 287 288 288 288 285 284 283 285 291 298 303 306 300 295 294 297 297 297 298 299 295 291 288 288 294 300 304 304 301 298 296 295 294 293 292 292 291 290 290 291 292 292 291 290 289 289 288 287 286 284 283 282 281 280 278 277 276 274 272 269 266 263 262
307 306 307 307 308 308 308 307 307 306 304 303 302 302 302 301 299 297 295 291 288 285 283 284 286 287 288 287 285 283 284 288 295 300 305 300 295 293 296 297 297 298 299 296 292 289 285 289 294 299 301 300 298 296 294 294 294 294 293 293 292 293 293 294 293 291 289 288 288 286 285 284 282 281 280 279 278 277 276 274 272 270 267 264 262 260
307 307 308 309 310 309 309 308 308 307 306 305 305 305 304 302 300 298 295 292 289 286 282 280 280 282 284 285 286 286 286 290 296 300 302 297 294 293 295 294 296 297 297 295 294 293 290 291 294 296 298 299 298 296 294 295 296 296 295 294 293 292 292 293 291 290 288 287 285 283 282 281 279 278 277 277 276 275 275 273 272 269 267 264 262 259
307 308 310 311 311 310 309 309 309 309 308 307 307 306 305 303 301 298 296 293 291 288 285 282 279 276 275 276 278 281 284 289 294 297 297 294 292 291 291 292 294 295 295 294 293 293 293 294 295 296 296 297 297 297 297 299 300 300 298 295 293 291 290 289 288 287 286 285 283 282 280 279 278 277 275 275 275 275 275 274 272 270 268 265 262 259
308 309 311 311 311 310 309 309 309 309 309 308 308 307 305 302 300 298 295 293 291 289 288 285 282 278 274 272 272 273 278 284 288 290 289 288 287 285 285 287 290 291 290 290 291 293 293 294 295 296 296 294 295 298 302 305 305 303 299 297 296 294 291 288 285 284 283 282 282 281 282 281 280 278 277 277 277 276 276 274 272 270 268 266 263 260
309 310 311 311 310 309 309 308 308 308 308 308 307 306 304 301 298 296 294 292 290 288 287 286 284 282 279 277 274 272 273 276 279 281 282 282 282 282 282 284 286 286 284 284 286 288 290 292 294 296 296 294 294 295 300 304 304 303 300 300 297 293 289 287 285 283 282 282 283 283 284 283 282 281 280 279 278 277 275 273 270 269 267 265 263 261
311 310 310 310 310 310 309 308 307 306 306 305 303 302 300 298 296 295 293 291 289 288 287 287 287 286 284 281 278 276 274 274 275 276 278 278 279 279 280 282 282 282 281 280 280 281 283 286 288 291 293 295 296 297 299 300 300 300 302 302 299 294 289 289 289 288 286 285 285 286 286 284 282 281 280 278 277 274 272 271 268 266 264 263 261 260
311 309 308 309 309 308 306 305 304 304 303 302 300 299 298 298 297 296 294 293 292 292 292 291 290 289 288 286 284 281 279 277 276 276 276 274 273 273 275 277 280 281 282 279 277 277 278 281 283 284 287 290 293 296 298 297 298 300 304 304 302 300 300 299 296 292 287 284 284 284 285 284 283 281 278 276 274 272 270 270 268 265 261 257 256 257
310 309 308 308 307 306 303 302 301 301 301 301 300 299 299 299 301 302 301 301 300 300 299 298 297 295 294 292 290 287 284 279 276 274 273 270 269 270 272 274 276 278 280 279 277 276 277 280 283 285 286 287 289 290 291 291 294 297 300 298 297 297 299 298 294 291 288 286 285 285 286 286 285 283 280 278 275 271 269 268 267 265 262 254 248 247
308 307 307 307 306 305 303 302 302 301 301 300 300 299 300 301 303 304 305 306 306 306 306 305 304 303 302 299 297 293 287 281 276 273 271 269 268 268 269 271 272 275 277 279 280 280 280 281 283 284 285 286 287 288 288 289 291 293 294 292 294 296 297 295 295 295 296 294 292 290 288 287 286 284 282 280 277 273 269 266 265 263 261 255 247 241
306 305 304 304 303 302 302 303 303 303 303 302 301 301 301 302 303 304 304 304 305 306 307 306 305 303 302 301 301 299 295 288 282 278 276 273 271 270 269 269 270 273 276 281 284 285 285 283 282 281 281 283 283 284 285 288 290 291 289 290 294 299 301 302 304 305 303 298 294 292 290 288 286 285 283 281 278 274 270 267 265 262 259 257 251 244
303 302 302 302 302 303 305 306 306 306 306 304 302 302 303 304 304 303 302 301 302 304 306 305 304 301 298 298 300 302 302 299 294 289 283 276 272 269 270 271 274 276 279 281 284 287 289 287 284 282 282 283 282 281 282 284 287 289 289 290 291 290 288 295 301 304 302 299 296 295 293 291 290 289 287 283 279 275 271 267 264 261 258 257 253 249
301 301 303 304 306 307 307 307 307 307 305 304 303 303 305 305 305 304 302 301 302 304 305 305 303 300 298 299 300 302 304 305 304 300 291 281 276 274 275 277 280 281 280 277 277 280 285 287 288 287 287 284 280 278 278 281 283 286 288 290 290 288 284 288 292 296 298 299 299 299 297 296 295 293 290 287 283 280 275 272 268 265 262 258 256 253
303 305 306 307 308 308 307 307 307 307 306 305 305 306 307 308 306 304 302 302 302 303 304 303 301 298 297 300 302 304 305 305 306 305 302 295 289 284 282 281 282 282 280 277 275 274 275 278 283 286 289 286 281 277 274 276 280 284 288 292 293 293 291 291 292 294 296 298 299 300 300 300 298 296 292 292 290 288 283 277 272 268 265 262 260 257
307 308 308 309 308 307 307 308 308 308 307 307 308 308 309 308 307 306 304 304 304 303 303 302 300 297 297 299 301 303 304 305 306 307 308 306 304 300 295 289 287 285 283 279 276 273 270 270 272 276 279 282 282 280 278 277 279 283 288 293 295 296 296 296 296 297 298 298 298 300 302 303 302 299 296 296 295 293 289 283 275 269 264 261 260 259
308 308 308 308 308 307 307 308 309 309 308 308 308 309 309 310 310 309 307 307 305 304 303 302 301 299 299 299 300 300 301 302 304 306 308 309 309 307 305 300 296 291 286 282 279 275 271 266 263 263 264 267 272 276 280 281 283 285 288 293 295 296 297 297 299 300 300 299 299 300 302 303 303 302 301 301 301 299 297 293 286 277 266 261 259 259
306 306 306 306 306 306 306 308 309 309 308 308 308 308 309 310 310 310 307 306 305 303 302 301 300 300 300 300 300 300 300 301 302 304 306 308 310 310 309 308 305 302 298 293 289 284 277 268 259 252 248 249 255 264 274 281 285 287 290 293 295 297 297 298 300 303 304 303 302 302 302 301 300 300 301 302 303 304 304 302 298 292 280 268 263 263
305 304 304 304 304 305 306 307 308 307 306 306 306 307 308 309 310 308 305 304 302 301 300 299 299 299 298 298 299 301 301 302 303 304 306 308 310 311 312 312 312 311 309 308 307 305 301 290 272 255 243 238 240 249 267 279 288 293 296 296 297 297 298 299 302 304 306 306 305 305 304 303 303 303 304 304 305 306 308 309 308 306 301 287 277 273
305 304 303 303 304 305 306 306 306 306 305 305 305 305 306 307 308 307 306 305 304 302 299 299 297 297 297 298 299 301 302 302 303 304 305 308 310 311 312 313 315 317 317 318 319 320 320 318 312 296 267 245 238 242 263 282 293 298 300 299 299 300 301 302 303 306 307 307 306 306 307 308 310 312 313 311 310 311 314 315 315 314 312 304 296 288